EW8016 Weather Reports


time (UTC)temp
C
wind
direction
speed
KPH
gust
KPH
rain 1hr
cm
rain 24hr
cm
rain mn
cm
humidity
%
barometer
mb
20260507023504 5 349 0.0 8.0 0.00 0.15 0.00 92 1013.2
20260507023003 5 0 0.0 0.0 0.00 0.15 0.00 92 1013.3
20260507022505 5 0 0.0 0.0 0.00 0.18 0.00 92 1013.2
20260507022217 5 0 0.0 0.0 0.00 0.18 0.00 92 1013.1
20260507021719 5 0 0.0 0.0 0.00 0.18 0.00 92 1013.1
20260507021003 5 0 0.0 0.0 0.00 0.18 0.00 92 1013.0
20260507020504 5 355 1.6 4.8 0.00 0.18 0.00 92 1012.9
20260507020006 5 353 1.6 4.8 0.00 0.18 0.00 92 1013.0
20260507015505 6 350 1.6 4.8 0.00 0.18 0.00 92 1012.9
20260507015007 6 350 1.6 4.8 0.00 0.20 0.00 92 1013.0
20260507014504 6 350 1.6 6.4 0.00 0.20 0.00 92 1013.0
20260507014005 6 350 1.6 6.4 0.00 0.20 0.00 92 1013.0
20260507013718 6 346 1.6 6.4 0.00 0.20 0.00 92 1012.9
20260507013004 6 355 3.2 6.4 0.00 0.20 0.00 92 1012.9
20260507012505 6 351 3.2 6.4 0.00 0.20 0.00 91 1012.9
20260507012004 6 340 1.6 6.4 0.00 0.20 0.00 91 1012.9
20260507011503 6 336 1.6 6.4 0.00 0.20 0.00 91 1012.8
20260507011003 6 340 1.6 6.4 0.00 0.23 0.00 91 1012.7
20260507010506 6 346 1.6 6.4 0.00 0.23 0.00 91 1012.8
20260507010003 6 350 1.6 6.4 0.00 0.23 0.00 91 1012.7
20260507005505 6 350 1.6 6.4 0.00 0.23 0.00 91 1012.6
20260507005005 6 350 1.6 4.8 0.00 0.23 0.00 90 1012.6
20260507004504 6 349 1.6 6.4 0.00 0.23 0.00 90 1012.7
20260507004003 6 349 3.2 9.7 0.00 0.23 0.00 90 1012.6
20260507003505 6 358 3.2 9.7 0.00 0.23 0.00 90 1012.5
20260507003003 7 359 3.2 6.4 0.00 0.23 0.00 90 1012.5
20260507002503 7 349 3.2 8.0 0.00 0.23 0.00 89 1012.4
20260507002005 7 348 3.2 9.7 0.00 0.23 0.00 89 1012.5
20260507001504 7 348 3.2 9.7 0.00 0.23 0.00 89 1012.5
20260507001004 7 350 3.2 8.0 0.00 0.23 0.00 89 1012.5
20260507000505 7 356 3.2 8.0 0.00 0.23 0.00 89 1012.6
20260507000216 7 1 3.2 9.7 0.00 0.23 0.00 89 1012.6
20260506235506 7 4 4.8 14.5 0.00 0.23 0.00 88 1012.5
20260506235220 7 3 4.8 14.5 0.00 0.23 0.00 88 1012.5
20260506234719 7 360 4.8 14.5 0.00 0.23 0.00 88 1012.5
20260506234004 7 353 4.8 14.5 0.00 0.23 0.00 88 1012.5
20260506233503 8 350 4.8 14.5 0.00 0.23 0.00 87 1012.5
20260506233218 8 349 4.8 14.5 0.00 0.23 0.00 87 1012.5
20260506232719 8 347 4.8 14.5 0.00 0.23 0.00 87 1012.5
20260506232003 8 348 4.8 12.9 0.00 0.23 0.00 86 1012.6
20260506231503 8 360 3.2 8.0 0.00 0.23 0.00 86 1012.6
20260506231003 8 3 3.2 12.9 0.00 0.23 0.00 86 1012.6
20260506230505 8 354 4.8 12.9 0.00 0.23 0.00 86 1012.5
20260506230003 8 357 3.2 12.9 0.00 0.23 0.00 86 1012.5
20260506225504 8 350 3.2 8.0 0.00 0.23 0.00 86 1012.5
20260506225006 8 350 3.2 11.3 0.00 0.23 0.00 86 1012.5
20260506224503 8 2 4.8 12.9 0.00 0.23 0.00 85 1012.4
20260506224222 8 5 4.8 12.9 0.00 0.23 0.00 85 1012.4
20260506223505 9 353 3.2 12.9 0.00 0.23 0.00 85 1012.4
20260506223004 9 351 3.2 11.3 0.00 0.23 0.00 85 1012.3
20260506222717 9 354 3.2 11.3 0.00 0.23 0.00 85 1012.3
20260506222003 9 2 4.8 12.9 0.00 0.23 0.00 84 1012.4
20260506221505 9 1 4.8 12.9 0.00 0.23 0.00 84 1012.4
20260506221004 10 351 4.8 16.1 0.00 0.23 0.00 84 1012.4
20260506220505 10 347 6.4 16.1 0.00 0.23 0.00 85 1012.3
20260506220006 10 347 4.8 12.9 0.00 0.23 0.00 85 1012.3
20260506215503 10 355 3.2 8.0 0.00 0.23 0.23 85 1012.3
20260506215218 10 352 3.2 9.7 0.00 0.23 0.23 85 1012.3
20260506214717 10 345 3.2 12.9 0.00 0.23 0.23 84 1012.3
20260506214003 10 342 3.2 12.9 0.00 0.23 0.23 84 1012.3
20260506213510 10 344 1.6 6.4 0.00 0.23 0.23 84 1012.3
20260506213218 10 334 0.0 4.8 0.00 0.23 0.23 84 1012.1
20260506212504 10 333 0.0 4.8 0.00 0.23 0.23 84 1012.1
20260506212006 10 334 1.6 4.8 0.00 0.23 0.23 84 1012.0
20260506211509 10 339 1.6 4.8 0.00 0.23 0.23 84 1012.0
20260506211009 10 340 1.6 4.8 0.00 0.23 0.23 83 1012.0
20260506210718 10 334 1.6 4.8 0.00 0.23 0.23 83 1012.0
20260506210005 10 322 0.0 4.8 0.00 0.23 0.23 83 1012.1
20260506205508 10 0 0.0 0.0 0.00 0.23 0.23 83 1011.9
20260506205004 10 0 0.0 0.0 0.00 0.23 0.23 82 1011.9
20260506204504 10 0 0.0 0.0 0.00 0.23 0.23 82 1011.9
20260506204005 10 355 0.0 4.8 0.00 0.23 0.23 82 1011.9
20260506203504 10 355 0.0 4.8 0.00 0.23 0.23 82 1011.9
20260506203006 10 355 0.0 4.8 0.00 0.23 0.23 82 1011.9
20260506202505 10 355 0.0 4.8 0.00 0.23 0.23 82 1011.9
20260506202004 10 355 1.6 4.8 0.00 0.23 0.23 81 1011.8
20260506201503 10 355 1.6 4.8 0.00 0.23 0.23 82 1011.8
20260506201005 10 6 1.6 4.8 0.00 0.23 0.23 81 1011.8
20260506200504 10 16 1.6 4.8 0.00 0.23 0.23 81 1011.8
20260506200217 10 17 1.6 4.8 0.00 0.23 0.23 81 1011.8
20260506195718 10 11 1.6 3.2 0.00 0.23 0.23 80 1011.6
20260506195003 10 11 0.0 4.8 0.00 0.23 0.23 80 1011.6
20260506194503 10 12 1.6 4.8 0.00 0.23 0.23 80 1011.5
20260506194005 10 14 1.6 6.4 0.00 0.23 0.23 80 1011.4
20260506193511 10 16 1.6 6.4 0.00 0.23 0.23 80 1011.5
20260506193003 10 6 1.6 6.4 0.00 0.23 0.23 80 1011.4
20260506192718 10 2 1.6 6.4 0.00 0.23 0.23 80 1011.4
20260506192004 10 17 1.6 6.4 0.00 0.23 0.23 80 1011.3
20260506191506 11 19 1.6 8.0 0.00 0.23 0.23 80 1011.2
20260506191003 11 9 1.6 8.0 0.00 0.23 0.23 80 1011.1
20260506190718 11 0 0.0 0.0 0.00 0.23 0.23 80 1011.2
20260506190006 11 5 0.0 3.2 0.00 0.23 0.23 79 1011.1
20260506185503 11 5 0.0 6.4 0.00 0.23 0.23 79 1011.0
20260506185216 11 11 0.0 6.4 0.00 0.23 0.23 79 1011.0
20260506184719 11 32 1.6 6.4 0.00 0.23 0.23 79 1010.9
20260506184008 11 10 1.6 6.4 0.00 0.23 0.23 79 1010.8
20260506183503 11 356 0.0 4.8 0.00 0.23 0.23 78 1010.7
20260506183011 11 18 1.6 6.4 0.00 0.23 0.23 78 1010.7
20260506182503 11 41 1.6 6.4 0.00 0.23 0.23 78 1010.6
20260506182003 11 51 0.0 3.2 0.00 0.23 0.23 78 1010.6
20260506181504 11 51 1.6 3.2 0.00 0.23 0.23 77 1010.5
20260506181004 11 53 1.6 8.0 0.00 0.23 0.23 77 1010.4
20260506180505 11 43 3.2 9.7 0.00 0.23 0.23 76 1010.4
20260506180006 11 38 3.2 9.7 0.00 0.23 0.23 76 1010.3
20260506175504 11 45 3.2 8.0 0.00 0.23 0.23 76 1010.2
20260506175003 11 35 3.2 8.0 0.00 0.23 0.23 76 1010.2
20260506174504 11 28 3.2 9.7 0.00 0.23 0.23 76 1010.0
20260506174004 11 38 3.2 9.7 0.00 0.23 0.23 76 1010.1
20260506173503 11 45 3.2 12.9 0.00 0.23 0.23 75 1010.0
20260506173003 11 44 4.8 12.9 0.00 0.23 0.23 75 1010.0
20260506172503 11 42 3.2 12.9 0.00 0.23 0.23 75 1009.9
20260506172005 11 39 3.2 14.5 0.00 0.23 0.23 74 1009.9
20260506171504 12 45 3.2 14.5 0.00 0.23 0.23 74 1009.8
20260506171005 12 41 4.8 14.5 0.00 0.23 0.23 75 1009.8
20260506170506 12 39 4.8 14.5 0.00 0.23 0.23 74 1009.8
20260506170004 11 42 4.8 11.3 0.00 0.23 0.23 75 1009.9
20260506165503 11 40 4.8 11.3 0.00 0.23 0.23 75 1009.9
20260506165005 11 44 4.8 12.9 0.00 0.23 0.23 76 1009.9
20260506164505 11 42 3.2 12.9 0.00 0.23 0.23 76 1009.8
20260506164005 11 43 3.2 9.7 0.00 0.23 0.23 77 1009.8
20260506163505 11 47 4.8 12.9 0.00 0.23 0.23 76 1009.9
20260506163006 11 50 4.8 16.1 0.00 0.23 0.23 76 1009.8
20260506162505 11 51 6.4 25.7 0.00 0.23 0.23 77 1009.7
20260506162003 11 53 6.4 25.7 0.00 0.23 0.23 76 1009.7
20260506161503 11 46 6.4 19.3 0.00 0.23 0.23 76 1009.8
20260506161005 11 41 4.8 16.1 0.00 0.23 0.23 76 1009.7
20260506160503 11 54 6.4 22.5 0.00 0.23 0.23 77 1009.7
20260506160005 11 64 9.7 22.5 0.00 0.23 0.23 76 1009.7
20260506155503 11 70 8.0 19.3 0.00 0.23 0.23 77 1009.6
20260506155003 11 55 8.0 22.5 0.00 0.23 0.23 78 1009.7
20260506154503 11 46 8.0 22.5 0.00 0.23 0.23 77 1009.8
20260506154003 11 49 9.7 29.0 0.00 0.23 0.23 77 1009.7
20260506153720 11 50 9.7 29.0 0.00 0.23 0.23 76 1009.7
20260506153217 11 47 9.7 29.0 0.00 0.23 0.23 77 1009.7
20260506152504 11 45 8.0 20.9 0.00 0.23 0.23 78 1009.7
20260506152217 11 46 8.0 20.9 0.00 0.23 0.23 78 1009.6
20260506151507 11 39 9.7 22.5 0.00 0.23 0.23 78 1009.7
20260506151003 11 37 9.7 24.1 0.00 0.23 0.23 78 1009.7
20260506150722 11 36 9.7 24.1 0.00 0.23 0.23 78 1009.7
20260506150221 11 33 9.7 24.1 0.00 0.23 0.23 78 1009.6
20260506145503 11 36 9.7 24.1 0.00 0.23 0.23 78 1009.6
20260506145004 11 34 8.0 22.5 0.00 0.23 0.23 80 1009.4
20260506144722 11 42 6.4 17.7 0.00 0.23 0.23 82 1009.4
20260506144003 11 42 6.4 19.3 0.00 0.23 0.23 83 1009.4
20260506143508 11 38 8.0 20.9 0.00 0.23 0.23 83 1009.5
20260506143003 11 30 8.0 22.5 0.00 0.23 0.23 85 1009.5
20260506142718 11 27 8.0 22.5 0.00 0.23 0.23 85 1009.4
20260506142003 10 37 8.0 20.9 0.00 0.23 0.23 86 1009.4
20260506141718 10 42 8.0 20.9 0.00 0.23 0.23 86 1009.5
20260506141005 10 40 9.7 25.7 0.00 0.23 0.23 86 1009.5
20260506140505 10 41 6.4 19.3 0.00 0.23 0.23 88 1009.4
20260506140003 10 40 8.0 20.9 0.00 0.23 0.23 88 1009.4
20260506135503 10 39 9.7 22.5 0.00 0.23 0.23 88 1009.5
20260506135004 10 41 9.7 22.5 0.00 0.23 0.23 88 1009.4
20260506134503 10 35 8.0 22.5 0.00 0.23 0.23 88 1009.4
20260506134223 10 33 8.0 19.3 0.00 0.23 0.23 89 1009.6
20260506133504 10 38 8.0 22.5 0.00 0.23 0.23 89 1009.4
20260506133003 10 35 8.0 22.5 0.00 0.23 0.23 89 1009.4
20260506132504 10 29 9.7 29.0 0.00 0.23 0.23 89 1009.5
20260506132003 10 29 9.7 29.0 0.00 0.23 0.23 89 1009.5
20260506131506 10 33 8.0 19.3 0.00 0.23 0.23 90 1009.5
20260506131218 10 37 6.4 19.3 0.00 0.23 0.23 90 1009.4
20260506130506 10 31 6.4 19.3 0.00 0.23 0.23 90 1009.3
20260506130006 10 29 8.0 25.7 0.00 0.23 0.23 91 1009.3
20260506125503 10 32 6.4 25.7 0.03 0.23 0.23 91 1009.2
20260506125218 10 32 6.4 17.7 0.03 0.23 0.23 92 1009.1
20260506124717 10 30 8.0 17.7 0.03 0.23 0.23 92 1009.2
20260506124010 10 31 6.4 17.7 0.03 0.23 0.23 92 1009.2
20260506123506 10 35 8.0 22.5 0.03 0.23 0.23 92 1009.2
20260506123218 10 36 6.4 22.5 0.03 0.23 0.23 92 1009.1
20260506122503 9 30 6.4 17.7 0.03 0.23 0.23 92 1009.1
20260506122222 9 33 6.4 19.3 0.03 0.23 0.23 92 1009.1
20260506121503 9 32 9.7 24.1 0.05 0.23 0.23 91 1009.1
20260506121006 9 32 8.0 24.1 0.05 0.23 0.23 91 1009.1
20260506120503 9 24 4.8 16.1 0.05 0.23 0.23 92 1009.2
20260506120218 9 19 6.4 16.1 0.05 0.23 0.23 92 1009.1
20260506115719 9 12 4.8 16.1 0.03 0.23 0.23 91 1009.1
20260506115003 9 26 6.4 17.7 0.03 0.23 0.23 91 1009.1
20260506114503 9 27 6.4 17.7 0.03 0.23 0.23 91 1009.0
20260506114005 9 27 6.4 16.1 0.03 0.23 0.23 92 1008.9
20260506113505 9 35 6.4 22.5 0.03 0.23 0.23 91 1008.9
20260506113003 9 34 6.4 22.5 0.03 0.23 0.23 91 1008.9
20260506112504 10 21 6.4 19.3 0.05 0.23 0.23 92 1008.9
20260506112010 10 15 6.4 17.7 0.05 0.23 0.23 91 1008.8
20260506111510 10 18 6.4 19.3 0.03 0.20 0.20 91 1008.8
20260506111003 10 15 4.8 19.3 0.03 0.20 0.20 91 1008.8
20260506110505 10 15 4.8 16.1 0.03 0.20 0.20 92 1008.7
20260506110003 10 18 6.4 19.3 0.03 0.20 0.20 92 1008.8
20260506105507 10 20 6.4 19.3 0.03 0.20 0.20 91 1008.7
20260506105003 10 24 6.4 17.7 0.03 0.20 0.20 91 1008.8
20260506104718 10 27 6.4 17.7 0.03 0.20 0.20 91 1008.7
20260506104003 10 30 6.4 17.7 0.05 0.20 0.20 92 1008.7
20260506103510 10 19 6.4 19.3 0.05 0.20 0.20 91 1008.7
20260506103003 10 17 6.4 19.3 0.05 0.20 0.20 91 1008.6
20260506102505 10 21 6.4 19.3 0.03 0.18 0.18 92 1008.5
20260506102008 10 16 6.4 19.3 0.03 0.18 0.18 92 1008.5
20260506101503 10 24 6.4 16.1 0.03 0.18 0.18 92 1008.5
20260506101004 10 39 6.4 20.9 0.03 0.18 0.18 92 1008.5
20260506100507 10 32 8.0 20.9 0.03 0.18 0.18 92 1008.4
20260506100006 10 30 6.4 19.3 0.03 0.18 0.18 92 1008.3
20260506095505 10 31 6.4 19.3 0.03 0.18 0.18 92 1008.3
20260506095003 10 23 4.8 19.3 0.03 0.18 0.18 92 1008.3
20260506094503 10 22 3.2 12.9 0.03 0.18 0.18 92 1008.4
20260506094005 10 23 4.8 14.5 0.00 0.15 0.15 92 1008.3
20260506093504 9 27 6.4 19.3 0.00 0.15 0.15 92 1008.3
20260506093005 9 29 8.0 19.3 0.00 0.15 0.15 92 1008.3
20260506092505 9 30 8.0 22.5 0.00 0.15 0.15 92 1008.3
20260506092011 9 29 8.0 22.5 0.00 0.15 0.15 92 1008.3
20260506091506 9 21 6.4 17.7 0.03 0.15 0.15 92 1008.2
20260506091005 9 27 6.4 19.3 0.03 0.15 0.15 92 1008.2
20260506090503 9 35 8.0 24.1 0.03 0.15 0.15 92 1008.1
20260506090003 9 37 6.4 24.1 0.03 0.15 0.15 93 1008.1
20260506085718 9 35 8.0 24.1 0.03 0.15 0.15 92 1008.1
20260506085003 9 24 8.0 20.9 0.03 0.15 0.15 93 1008.1
20260506084504 9 28 6.4 20.9 0.03 0.15 0.15 93 1008.0
20260506084005 9 22 4.8 14.5 0.03 0.15 0.15 93 1008.1
20260506083506 9 17 3.2 14.5 0.03 0.15 0.15 94 1008.1
20260506083003 9 32 4.8 12.9 0.03 0.15 0.15 94 1008.1
20260506082720 8 23 4.8 14.5 0.03 0.15 0.15 94 1008.0
20260506082003 8 15 6.4 17.7 0.03 0.15 0.15 94 1008.1
20260506081503 8 27 6.4 17.7 0.00 0.15 0.15 93 1008.1
20260506081006 8 28 4.8 16.1 0.00 0.15 0.15 94 1008.0
20260506080720 8 28 6.4 16.1 0.00 0.15 0.15 94 1008.1
20260506073504 8 32 6.4 16.1 0.03 0.15 0.15 94 1007.8
20260506073003 8 37 4.8 16.1 0.03 0.18 0.15 95 1007.8
20260506072504 8 37 4.8 14.5 0.05 0.18 0.15 95 1007.8
20260506072003 8 33 4.8 17.7 0.05 0.18 0.15 95 1007.8
20260506071719 8 37 4.8 17.7 0.05 0.18 0.15 95 1007.8
20260506071005 8 37 4.8 12.9 0.05 0.20 0.15 95 1007.8
20260506070504 8 31 4.8 14.5 0.05 0.20 0.15 94 1007.8
20260506062005 8 32 6.4 17.7 0.03 0.18 0.10 94 1007.5
20260506061504 9 22 4.8 17.7 0.00 0.15 0.08 95 1007.4
20260506061222 9 19 4.8 12.9 0.00 0.15 0.08 95 1007.4
20260506060717 9 14 4.8 12.9 0.00 0.15 0.08 95 1007.4
20260506051003 8 22 4.8 12.9 0.00 0.15 0.08 95 1007.2
20260506050504 8 13 4.8 12.9 0.00 0.15 0.08 95 1007.1
20260506045003 8 23 3.2 8.0 0.00 0.15 0.08 95 1007.2
20260506044505 8 15 3.2 11.3 0.00 0.15 0.08 95 1007.3
20260506044003 8 10 1.6 11.3 0.00 0.15 0.08 95 1007.3
20260506043503 8 358 1.6 9.7 0.00 0.15 0.08 95 1007.3
20260506043005 8 359 3.2 9.7 0.00 0.15 0.08 95 1007.2
20260506042505 8 9 3.2 11.3 0.00 0.15 0.08 95 1007.2
20260506042221 8 14 3.2 11.3 0.00 0.15 0.08 95 1007.2
20260506041505 8 37 3.2 8.0 0.00 0.15 0.08 95 1007.2
20260506041003 8 26 3.2 8.0 0.00 0.15 0.08 95 1007.3
20260506040505 8 20 4.8 8.0 0.00 0.15 0.08 95 1007.3
20260506040003 8 10 3.2 12.9 0.00 0.15 0.08 95 1007.3
20260506035504 8 8 3.2 12.9 0.00 0.15 0.08 95 1007.3
20260506035003 8 15 1.6 6.4 0.00 0.15 0.08 95 1007.3
20260506034504 8 17 1.6 8.0 0.00 0.15 0.08 95 1007.4
20260506034003 8 23 1.6 8.0 0.00 0.15 0.08 95 1007.4
20260506033506 8 13 3.2 9.7 0.00 0.15 0.08 95 1007.5
20260506033003 8 9 3.2 9.7 0.00 0.15 0.08 95 1007.5
20260506032718 8 6 3.2 9.7 0.00 0.15 0.08 95 1007.5
20260506032004 8 352 3.2 9.7 0.03 0.15 0.08 95 1007.5
20260506031503 8 360 3.2 9.7 0.03 0.15 0.08 95 1007.6
20260506031007 8 5 3.2 8.0 0.03 0.15 0.08 95 1007.6
20260506030503 8 352 4.8 9.7 0.03 0.15 0.08 95 1007.6
20260506030005 8 350 4.8 9.7 0.03 0.15 0.08 95 1007.6
20260506025506 8 357 3.2 8.0 0.03 0.18 0.08 95 1007.7
20260506025005 8 354 3.2 9.7 0.05 0.18 0.08 95 1007.7
20260506024503 8 357 1.6 9.7 0.05 0.18 0.08 95 1007.7
20260506024005 8 5 3.2 12.9 0.05 0.18 0.08 95 1007.7